Home > Weather > Zabrze > Past weeks

Flag for Poland Weather for the Past 2 Weeks in Zabrze, Poland

Now
39 °F

Passing clouds.


Feels Like: 31 °F
Forecast: 31 / 41 °F
Wind: 15 mph from West

Location: Katowice Airport

Current Time: Feb 11, 2016 at 4:35:56 PM

Latest Report: Feb 11, 2016 at 4:00 PM


Visibility: N/A

Pressure: 29.56 "Hg

Humidity: 70%

Dew point: 30 °F

Location of ZabrzeLocation

Historic Weather in Zabrze — Graph

°F

Zabrze Temperature Yesterday

Maximum temperature yesterday: 52 °F (at 12:00 AM)
Minimum temperature yesterday: 32 °F (at 4:00 PM)
Average temperature yesterday: 39 °F

High & Low Weather Summary for the Past Weeks

 TemperatureHumidityPressure
High54 °F (Jan 30, 2:00 PM)100% (Jan 28, 9:30 PM)30.30 "Hg (Jan 28, 9:30 PM)
Low28 °F (Jan 29, 12:30 AM)44% (Jan 30, 2:30 PM)29.24 "Hg (Feb 10, 3:30 AM)
Average41 °F78%29.88 "Hg
* Reported Jan 27 3:00 PM — Feb 11 3:30 PM, Zabrze, Weather by CustomWeather, © 2016

Note: Actual official high and low records may vary slightly from our data, if they occured in-between our weather recording intervals... More about our weather records

Advertising

Zabrze Weather History for the Previous 24 Hours

 ConditionsComfort  
Time TempWeatherWind HumidityBarometerVisibility
3:30 PM
Thu, Feb 11
39 °FPassing clouds.15 mph75%29.56 "HgN/A
3:00 PM39 °FSprinkles. Scattered clouds.13 mph81%29.56 "HgN/A
2:30 PM39 °FPassing clouds.13 mph81%29.53 "HgN/A
2:00 PM39 °FSprinkles. Broken clouds.15 mph81%29.53 "HgN/A
1:30 PM39 °FScattered clouds.16 mph87%29.53 "HgN/A
1:00 PM37 °FSprinkles. Broken clouds.18 mph87%29.53 "HgN/A
12:30 PM39 °FSprinkles. Broken clouds.20 mph81%29.53 "HgN/A
12:00 PM39 °FBroken clouds.21 mph87%29.53 "HgN/A
11:30 AM37 °FMostly cloudy.18 mph93%29.50 "HgN/A
11:00 AM37 °FSprinkles. Broken clouds.17 mph87%29.50 "HgN/A
10:30 AM36 °FPartly sunny.15 mph93%29.50 "Hg4 mi
10:00 AM36 °FPartly sunny.14 mph93%29.50 "Hg4 mi
9:30 AM34 °FSnow flurries. Fog.14 mph93%29.50 "Hg2 mi
9:00 AM34 °FSnow flurries. Broken clouds.12 mph100%29.47 "Hg4 mi
8:30 AM34 °FLight rain. Fog.10 mph100%29.47 "Hg3 mi
8:00 AM34 °FSnow flurries. Broken clouds.10 mph93%29.47 "Hg4 mi
7:30 AM34 °FMostly cloudy.13 mph93%29.47 "Hg5 mi
7:00 AM34 °FSnow flurries. Partly cloudy.15 mph93%29.45 "Hg4 mi
6:30 AM36 °FPassing clouds.12 mph87%29.45 "HgN/A
6:00 AM34 °FPassing clouds.13 mph93%29.45 "HgN/A
5:30 AM34 °FPassing clouds.10 mph93%29.45 "HgN/A
5:00 AM34 °FPassing clouds.10 mph93%29.42 "HgN/A
4:30 AM34 °FPassing clouds.10 mph93%29.42 "HgN/A
4:00 AM34 °FPartly cloudy.12 mph93%29.42 "HgN/A
3:00 AM36 °FPassing clouds.13 mph87%29.39 "HgN/A
2:30 AM34 °FPartly cloudy.12 mph93%29.39 "HgN/A
2:00 AM34 °FLight rain. Passing clouds.10 mph93%29.39 "HgN/A
1:00 AM34 °FLight snow. Partly cloudy.8 mph93%29.36 "Hg4 mi
12:30 AM34 °FLight rain. Partly cloudy.15 mph93%29.36 "Hg4 mi
12:00 AM34 °FLight rain. Partly cloudy.12 mph93%29.36 "Hg6 mi
11:00 PM
Wed, Feb 10
34 °FPassing clouds.10 mph93%29.33 "HgN/A
10:00 PM34 °FPassing clouds.10 mph93%29.33 "HgN/A
9:30 PM34 °FPassing clouds.10 mph93%29.30 "HgN/A
9:00 PM34 °FPartly cloudy.10 mph93%29.30 "HgN/A
8:30 PM32 °FPassing clouds.9 mph100%29.30 "Hg4 mi
8:00 PM32 °FLight snow. Ice fog.7 mph100%29.30 "Hg3 mi
7:30 PM32 °FLight snow. Ice fog.10 mph100%29.30 "Hg2 mi
7:00 PM32 °FSnow. Ice fog.8 mph100%29.30 "Hg1 mi
6:30 PM32 °FSnow showers. Ice fog.9 mph100%29.30 "Hg1 mi
6:00 PM32 °FSnow showers. Ice fog.14 mph100%29.30 "Hg1 mi
5:30 PM34 °FSnow. Fog.13 mph93%29.27 "Hg2 mi
5:00 PM34 °FRain. Fog.14 mph93%29.27 "Hg2 mi
4:30 PM32 °FRain. Ice fog.14 mph100%29.27 "Hg1 mi
4:00 PM32 °FRain. Ice fog.12 mph100%29.27 "Hg1 mi
Weather by CustomWeather, © 2016

See weather overviewHow to use our weather pages